Home > Weather > Rzeszów > Past weeks

Flag for Poland Past Weather in Rzeszów, Poland — Yesterday and Last 2 Weeks

Now
82 °F

Passing clouds.


Feels Like: 82 °F
Forecast: 65 / 88 °F
Wind: 10 mph from East

Location: Rzeszow-Jasionka

Current Time: Jul 25, 2016 at 12:03:35 PM

Latest Report: Jul 25, 2016 at 11:30 AM


Visibility: N/A

Pressure: 30.04 "Hg

Humidity: 42%

Dew Point: 57 °F

Location of RzeszówLocation

Past Weather in Rzeszów — Graph

°F

Rzeszów Temperature Yesterday

Maximum temperature yesterday: 84 °F (at 3:30 PM)
Minimum temperature yesterday: 55 °F (at 5:00 AM)
Average temperature yesterday: 72 °F

High & Low Weather Summary for the Past Weeks

 TemperatureHumidityPressure
High90 °F (Jul 12, 12:30 PM)100% (Jul 13, 3:00 AM)30.15 "Hg (Jul 13, 3:00 AM)
Low48 °F (Jul 21, 4:30 AM)28% (Jul 21, 4:30 PM)29.62 "Hg (Jul 14, 4:00 PM)
Average67 °F71%29.99 "Hg
* Reported Jul 10 10:00 AM — Jul 25 10:30 AM, Rzeszów, Weather by CustomWeather, © 2016

Note: Actual official high and low records may vary slightly from our data, if they occured in-between our weather recording intervals... More about our weather records

Advertising

Rzeszów Weather History for the Previous 24 Hours

Scroll right to see more
 ConditionsComfort  
Time TempWeatherWind HumidityBarometerVisibility
10:30 AM
Mon, Jul 25
81 °FPassing clouds.8 mph54%30.04 "HgN/A
10:00 AM81 °FPassing clouds.5 mph58%30.04 "HgN/A
9:30 AM79 °FPassing clouds.5 mph58%30.04 "HgN/A
9:00 AM75 °FSunny.2 mph65%30.04 "Hg10 mi
8:30 AM72 °FSunny.2 mph73%30.04 "Hg10 mi
8:00 AM70 °FSunny.2 mph78%30.04 "Hg10 mi
7:30 AM66 °FPassing clouds.3 mph83%30.04 "HgN/A
7:00 AM64 °FSunny.2 mph88%30.07 "Hg10 mi
6:30 AM63 °FSunny.3 mph94%30.07 "Hg10 mi
6:00 AM63 °FSunny.3 mph88%30.07 "Hg10 mi
5:30 AM61 °FClear.2 mph94%30.07 "Hg10 mi
5:00 AM59 °FClear.1 mph94%30.07 "Hg10 mi
4:30 AM57 °FClear.1 mph100%30.04 "Hg10 mi
4:00 AM59 °FClear.3 mph94%30.07 "Hg10 mi
3:30 AM59 °FClear.3 mph94%30.07 "Hg10 mi
3:00 AM63 °FClear.1 mph83%30.07 "Hg10 mi
2:30 AM63 °FClear.2 mph88%30.07 "Hg10 mi
2:00 AM64 °FClear.1 mph83%30.07 "Hg10 mi
1:30 AM63 °FClear.1 mph88%30.07 "Hg10 mi
1:00 AM64 °FClear.3 mph88%30.07 "Hg10 mi
12:30 AM64 °FClear.5 mph83%30.07 "Hg10 mi
12:00 AM66 °FClear.2 mph78%30.07 "Hg10 mi
11:30 PM
Sun, Jul 24
66 °FClear.5 mph83%30.07 "Hg10 mi
11:00 PM66 °FClear.7 mph83%30.07 "Hg10 mi
10:30 PM68 °FClear.5 mph78%30.07 "Hg10 mi
10:00 PM72 °FClear.2 mph69%30.07 "Hg10 mi
9:30 PM72 °FClear.3 mph69%30.07 "Hg10 mi
9:00 PM73 °FSunny.6 mph65%30.07 "Hg10 mi
8:30 PM75 °FSunny.5 mph61%30.04 "Hg10 mi
8:00 PM77 °FSunny.5 mph57%30.04 "Hg10 mi
7:30 PM79 °FSunny.3 mph51%30.04 "Hg10 mi
7:00 PM81 °FSunny.3 mph48%30.04 "Hg10 mi
6:30 PM82 °FSunny.3 mph40%30.04 "Hg10 mi
6:00 PM84 °FPassing clouds.3 mph37%30.04 "HgN/A
5:30 PM84 °FPassing clouds.3 mph37%30.04 "HgN/A
5:00 PM84 °FPassing clouds.5 mph37%30.04 "HgN/A
4:30 PM84 °FPassing clouds.7 mph37%30.07 "HgN/A
4:00 PM84 °FSunny.5 mph40%30.07 "Hg10 mi
3:30 PM84 °FPassing clouds.5 mph37%30.07 "HgN/A
3:00 PM82 °FPassing clouds.6 mph40%30.07 "HgN/A
2:30 PM82 °FPassing clouds.7 mph42%30.07 "HgN/A
2:00 PM82 °FPassing clouds.8 mph40%30.07 "HgN/A
1:30 PM82 °FSunny.3 mph42%30.07 "Hg10 mi
1:00 PM81 °FSunny.5 mph48%30.07 "Hg10 mi
12:30 PM82 °FPassing clouds.6 mph45%30.07 "HgN/A
12:00 PM79 °FPassing clouds.2 mph51%30.09 "HgN/A
Weather by CustomWeather, © 2016

See weather overviewHow to use our weather pages